NOAA 17 DEB, 48175

Orbit data source: Space-Track

NOAA 17 DEB, 48175 is space debris in SSO originally from a launch on Mon, 24 Jun 2002 UTC launched from the Air Force Western Test Range (AFWTR). Debris objects in space refer to the collection of defunct objects orbiting the Earth. Examples of debris include non-operational satellites, rocket bodies, and fragments generated from explosions, collisions, or faulty payload assembly.

Loading next visibility...
Identifier
48175, 2002-032Q
Orbit
SSO
Country
Flag of USUS
Related business
Manufacturer
Unknown
Mission
Spacecraft
Bus & Motor
Unknown
Mass
Unknown
Launch date (UTC)
2002-06-24 (23 years ago)
Launch vehicle
Unknown
Launch site
Air Force Western Test Range (AFWTR)
Object type
Payload
Rocket body
Debris
Shape & HBR
Unknown shape, 0.1 m
Radar Cross Section
Small (<0.1 m²)

Expand to show TLE details & history
Last TLE update: 4 days ago

TLE from 4 days ago
0 NOAA 17 DEB
1 48175U 02032Q   25346.16074999  .00017684  00000-0  42162-2 0  9990
2 48175  98.7384 315.9045 0018464 119.0415 241.2633 14.53676090247620
Epoch: 2025-12-12T03:51Z
TLE epoch observation values (Epoch: 2025-12-12T03:51:28.799Z)
Latitude
0.00005°
Longitude
176.92814°
Altitude
722.942 km
Speed
7.491 km/s
True Right ascension
21h 03m 37s
True Declination
0° 00' 00"
Sunlit
Object was in daylight at epoch
Visualization orbit readout
Latitude
Unknown
Longitude
Unknown
Altitude
Unknown
Speed
Unknown
Apparent Right ascension
Unknown
Apparent Declination
Unknown
Sunlit
N/A
Visualization observer readout
Local Sidereal Time
17:04:17
Azimuth
Unknown
Elevation
Unknown
Doppler factor
Unknown
Orbital elements
Apogee altitude
723.871 km
Perigee altitude
697.693 km
Semi-major axis
7,088.919 km
Eccentricity
0.00185
Inclination
98.7384°
RAAN
315.9045°
Arg. of periapsis
119.0415°
True anomaly
241.07798°
Mean anomaly
241.2633°
Eccentric anomaly
241.17062°
Mean motion
3.63641 °/min
Orbital period
99 mins
BSTAR
0.0042162
Loading maneuver chart data...
Computing Atmospheric mass density...
Loading historical data...
Loading historical data...
Loading historical data...
Loading historical data...
Loading historical data...
Loading historical data...
Loading historical data...

Documentation

Showing up to 5 results
|